Hourly Data Report for September 10, 2017

All times are specified in Local Standard Time (LST). Add 1 hour to adjust for Daylight Saving Time where and when it is observed.

PETAWAWA AWOS 2
ONTARIO

45°57'00.000" N
77°19'00.000" W
130.10 m
6106396
71625
YWA

Download Data

Hourly Data (September 2017)
Hourly Data Report for September 10, 2017
Temp Definition
°C
Dew Point Temp Definition
°C
Rel Hum Definition
%
Wind Dir Definition
10's deg

Wind Spd Definition
km/h
Visibility Definition
km
Stn Press Definition
kPa
Hmdx Definition


Wind Chill Definition


Weather Definition


TIME
00:00 5.9 5.5 97 26 6 14.5 101.50     LegendNANA
01:00 5.2 4.9 98 26 6 14.5 101.48     LegendNANA
02:00 4.4 4.1 98 26 6 14.5 101.52     LegendNANA
03:00 4.6 4.2 97 25 6 14.5 101.52     LegendNANA
04:00 5.3 4.9 97 27 7 14.5 101.57     LegendNANA
05:00 5.9 5.2 95 30 6 14.5 101.60     LegendNANA
06:00 5.5 5.0 97 29 4 14.5 101.66     LegendNANA
07:00 6.8 6.0 95 27 4 14.5 101.73     LegendNANA
08:00 9.3 8.0 92 31 7 14.5 101.75     LegendNANA
09:00 11.9 8.7 81 30 6 14.5 101.77     LegendNANA
10:00 14.6 8.7 68 27 7 14.5 101.73     LegendNANA
11:00 17.4 9.0 58 35 11 14.5 101.68     LegendNANA
12:00 17.9 7.0 49 35 11 14.5 101.62     LegendNANA
13:00 19.3 5.3 40 32 11 14.5 101.58     LegendNANA
14:00 19.5 7.5 46 32 9 14.5 101.49     LegendNANA
15:00 19.9 6.7 42 31 4 14.5 101.44     LegendNANA
16:00 20.3 7.0 42 34 7 14.5 101.38     LegendNANA
17:00 20.2 8.0 45 31 7 14.5 101.34     LegendNANA
18:00 19.1 8.1 49 28 4 14.5 101.33     LegendNANA
19:00 13.0 11.4 90   0 14.5 101.32     LegendNANA
20:00 12.0 10.4 90 25 4 14.5 101.34     LegendNANA
21:00 10.3 9.9 97   0 14.5 101.36     LegendNANA
22:00 9.0 8.6 97 26 4 14.5 101.36     LegendNANA
23:00 10.1 9.6 97 28 4 14.5 101.35     LegendNANA

Notes on Data Quality.

Legend

  • E = Estimated
  • M = Missing
  • NA = Not Available
  • ‡ = Partner data that is not subject to review by the National Climate Archives
Date modified: